Location: Long Geng
(2.6167°N, 114.1333°E)
Time: 20:22:09
(UTC+00:00)

Ariane 44LP R/B - Pass Details

Date: 27 September 2021
Orbit: 478 x 17832 km, 3.6° (Epoch: 15 October)

Event Time Altitude Azimuth Distance (km) Brightness Sun altitude
Exits shadow 21:35:08 12° 271° (W) 2,290 5.8 -9.9°
Maximum altitude 21:39:59 86° 0° (N) 1,488 5.5 -8.6°
Drops below altitude 10° 22:04:49 10° 88° (E) 9,939 11.8 -2.4°
Sets 22:25:14 0° 89° (E) 15,073 14.0 2.7°
